CW5752 Weather Reports


Display with metric or nautical units.
time (UTC)temp
F
wind
direction
speed
MPH
gust
MPH
rain 1hr
in
rain 24hr
in
rain mn
in
humidity
%
barometer
mb
20260506223521 62 327 1.0 5.0 0.00 0.50 0.03 51 1014.8
20260506222521 61 308 2.0 5.0 0.00 0.50 0.03 54 1014.8
20260506221602 60 315 0.0 2.0 0.00 0.50 0.03 60 1014.7
20260506220541 61 330 0.0 4.0 0.00 0.50 0.03 56 1015.0
20260506215516 59 341 0.0 1.0 0.00 0.51 0.03 63 1015.1
20260506214521 59 341 0.0 4.0 0.00 0.51 0.03 64 1015.1
20260506213521 60 340 1.0 5.0 0.00 0.51 0.03 59 1015.0
20260506212521 61 325 2.0 4.0 0.00 0.51 0.03 60 1015.1
20260506211521 61 330 2.0 5.0 0.00 0.51 0.03 56 1015.0
20260506210521 62 298 1.0 5.0 0.00 0.51 0.03 55 1015.0
20260506205536 61 305 1.0 4.0 0.00 0.51 0.03 53 1015.0
20260506204541 61 344 1.0 5.0 0.00 0.52 0.03 53 1015.1
20260506203521 61 330 2.0 4.0 0.00 0.52 0.03 56 1015.2
20260506202521 61 334 1.0 4.0 0.00 0.52 0.03 53 1015.3
20260506201521 62 349 2.0 5.0 0.00 0.53 0.03 50 1015.6
20260506200521 62 272 2.0 7.0 0.00 0.53 0.03 52 1015.6
20260506195521 62 314 1.0 4.0 0.00 0.53 0.03 59 1015.4
20260506194516 62 331 1.0 5.0 0.00 0.53 0.03 56 1015.3
20260506193521 62 299 2.0 5.0 0.00 0.53 0.03 60 1015.2
20260506192541 63 327 2.0 5.0 0.00 0.53 0.03 55 1015.3
20260506191521 61 328 1.0 5.0 0.00 0.53 0.03 62 1015.2
20260506190521 61 350 0.0 5.0 0.00 0.54 0.03 54 1015.2
20260506185541 61 272 1.0 6.0 0.00 0.55 0.03 63 1015.1
20260506184516 61 322 0.0 7.0 0.00 0.60 0.03 62 1015.2
20260506183516 62 331 1.0 6.0 0.00 0.60 0.03 64 1015.3
20260506182521 60 310 0.0 5.0 0.00 0.60 0.03 62 1015.5
20260506181521 60 280 1.0 5.0 0.00 0.60 0.03 62 1015.5
20260506180521 58 303 2.0 7.0 0.00 0.60 0.03 60 1015.7
20260506175521 60 319 1.0 5.0 0.00 0.60 0.03 64 1015.8
20260506174521 59 324 1.0 7.0 0.00 0.60 0.03 67 1015.8
20260506173516 58 322 0.0 4.0 0.00 0.60 0.03 64 1015.7
20260506172521 58 321 1.0 6.0 0.00 0.60 0.03 69 1015.6
20260506171521 58 323 1.0 6.0 0.00 0.60 0.03 66 1015.8
20260506170521 58 293 1.0 6.0 0.00 0.60 0.03 67 1015.9
20260506165521 57 331 0.0 2.0 0.00 0.60 0.03 69 1015.7
20260506164521 58 306 1.0 5.0 0.00 0.60 0.03 68 1015.7
20260506163521 57 272 0.0 4.0 0.00 0.60 0.03 67 1015.9
20260506162516 57 273 1.0 7.0 0.00 0.60 0.03 71 1015.7
20260506161521 57 311 0.0 3.0 0.00 0.60 0.03 69 1015.6
20260506160541 56 311 0.0 4.0 0.00 0.60 0.03 70 1015.6
20260506155521 56 311 0.0 4.0 0.00 0.60 0.03 76 1015.2
20260506154521 56 312 0.0 4.0 0.00 0.60 0.03 75 1015.3
20260506153521 55 312 0.0 4.0 0.00 0.60 0.03 77 1015.2
20260506152516 54 312 0.0 4.0 0.00 0.60 0.03 80 1015.2
20260506151516 53 317 0.0 3.0 0.00 0.60 0.03 84 1015.1
20260506150521 52 316 0.0 3.0 0.00 0.60 0.03 86 1015.6
20260506145521 51 315 0.0 3.0 0.00 0.60 0.03 87 1015.8
20260506144521 50 327 0.0 2.0 0.00 0.60 0.03 87 1015.5
20260506143519 50 327 0.0 2.0 0.00 0.60 0.03 88 1015.3
20260506142521 50 327 0.0 2.0 0.00 0.60 0.03 88 1015.1
20260506141536 50 327 0.0 2.0 0.00 0.60 0.03 89 1014.6
20260506140521 50 327 1.0 5.0 0.00 0.61 0.03 89 1014.9
20260506135521 50 342 1.0 7.0 0.00 0.62 0.03 88 1014.8
20260506134521 50 311 1.0 4.0 0.00 0.66 0.03 89 1014.4
20260506133521 50 311 1.0 4.0 0.00 0.71 0.03 89 1014.4
20260506132521 50 312 0.0 2.0 0.00 0.78 0.03 91 1014.4
20260506131521 49 312 0.0 2.0 0.00 0.83 0.03 90 1014.3
20260506130516 49 312 0.0 2.0 0.00 0.97 0.03 90 1013.9
20260506125601 49 312 0.0 4.0 0.00 1.11 0.03 91 1013.8
20260506124542 48 312 0.0 3.0 0.00 1.23 0.03 91 1013.6
20260506123521 48 311 0.0 3.0 0.00 1.23 0.03 92 1013.7
20260506122521 48 311 0.0 5.0 0.00 1.23 0.03 92 1014.0
20260506121521 48 260 1.0 3.0 0.00 1.23 0.03 92 1014.0
20260506120516 47 260 0.0 2.0 0.00 1.23 0.03 92 1013.8
20260506115516 47 260 0.0 4.0 0.00 1.23 0.03 92 1013.2
20260506114702 47 259 0.0 1.0 0.00 1.23 0.03 93 1013.3
20260506113521 47 0.0 2.0 0.00 1.23 0.03 93 1013.0
20260506112521 47 0.0 0.0 0.00 1.23 0.03 93 1012.8
20260506111521 47 333 0.0 4.0 0.00 1.23 0.03 93 1012.5
20260506110521 47 0.0 0.0 0.00 1.23 0.03 93 1012.0
20260506105516 47 338 0.0 2.0 0.00 1.23 0.03 93 1012.2
20260506104541 47 0.0 0.0 0.00 1.23 0.03 93 1012.6
20260506103521 47 338 0.0 2.0 0.00 1.23 0.03 93 1012.9
20260506102521 47 338 0.0 2.0 0.00 1.23 0.03 93 1012.6
20260506101521 47 337 0.0 3.0 0.00 1.23 0.03 93 1012.9
20260506100521 47 0.0 0.0 0.00 1.23 0.03 93 1012.8
20260506095521 47 0.0 0.0 0.00 1.23 0.03 93 1012.7
20260506094556 47 340 0.0 2.0 0.00 1.23 0.03 93 1011.9
20260506093521 47 340 0.0 2.0 0.00 1.23 0.03 93 1011.7
20260506092521 47 0.0 0.0 0.00 1.23 0.03 93 1011.8
20260506091521 47 0.0 0.0 0.00 1.23 0.03 93 1011.9
20260506090541 47 0.0 2.0 0.00 1.23 0.03 93 1011.9
20260506085521 47 340 0.0 2.0 0.00 1.23 0.03 93 1011.8
20260506084521 47 0.0 2.0 0.00 1.23 0.03 93 1011.6
20260506083516 46 0.0 3.0 0.00 1.23 0.03 93 1012.0
20260506082521 46 340 0.0 2.0 0.00 1.23 0.03 93 1011.6
20260506081521 46 0.0 1.0 0.00 1.23 0.03 93 1011.6
20260506080521 46 0.0 2.0 0.00 1.23 0.03 93 1012.4
20260506073516 46 0.0 1.0 0.01 1.23 0.03 93 1010.9
20260506072536 46 0.0 3.0 0.01 1.23 0.03 92 1011.0
20260506071521 46 341 1.0 3.0 0.02 1.23 0.03 92 1011.2
20260506070521 46 341 0.0 2.0 0.02 1.23 0.03 92 1011.4
20260506062515 46 315 0.0 4.0 0.01 1.22 0.02 92 1010.9
20260506061521 46 121 0.0 4.0 0.00 1.21 0.01 92 1010.7
20260506060521 46 313 0.0 3.0 0.00 1.21 0.01 92 1011.0
20260506050521 46 340 2.0 6.0 0.08 1.21 0.01 92 1011.3
20260506044522 47 340 2.0 12.0 0.06 1.17 1.17 92 1011.2
20260506043521 47 348 3.0 7.0 0.03 1.14 1.13 92 1010.8
20260506042542 48 342 1.0 9.0 0.03 1.13 1.12 93 1010.4
20260506041521 48 330 3.0 8.0 0.05 1.13 1.12 93 1010.6
20260506040521 48 354 3.0 7.0 0.06 1.13 1.12 93 1010.3
20260506035517 48 340 2.0 7.0 0.07 1.12 1.12 93 1010.7
20260506034516 48 319 0.0 5.0 0.09 1.11 1.11 93 1010.3
20260506033522 48 318 1.0 3.0 0.10 1.11 1.11 93 1010.6
20260506032522 48 319 1.0 5.0 0.10 1.10 1.10 93 1010.6
20260506031521 48 330 1.0 3.0 0.07 1.08 1.08 93 1010.6
20260506030521 48 329 0.0 5.0 0.12 1.07 1.07 93 1010.5
20260506025522 48 333 0.0 6.0 0.10 1.04 1.04 93 1010.1
20260506024516 48 335 0.0 6.0 0.11 1.02 1.02 93 1009.5
20260506023536 49 346 0.0 7.0 0.11 1.01 1.01 93 1009.4
20260506022522 49 346 1.0 4.0 0.10 1.00 1.00 93 1009.8
20260506021522 49 338 0.0 6.0 0.11 1.00 1.00 93 1009.0
20260506020521 49 335 2.0 5.0 0.08 0.94 0.94 93 1009.8
20260506015520 49 343 2.0 6.0 0.09 0.93 0.93 93 1009.4
20260506014541 49 324 0.0 5.0 0.14 0.91 0.91 92 1008.7
20260506013516 49 324 0.0 5.0 0.13 0.90 0.90 93 1008.4
20260506012521 49 352 2.0 9.0 0.13 0.90 0.90 92 1008.5
20260506011522 50 344 2.0 8.0 0.12 0.89 0.89 92 1008.2
20260506010522 50 337 1.0 5.0 0.13 0.86 0.86 92 1008.5
20260506005542 50 333 1.0 4.0 0.11 0.84 0.84 92 1008.8
20260506004522 50 4 1.0 3.0 0.04 0.77 0.77 92 1008.3
20260506003521 50 5 0.0 3.0 0.04 0.77 0.77 92 1007.9
20260506002516 50 105 0.0 2.0 0.04 0.77 0.77 92 1007.5
20260506001521 50 107 0.0 5.0 0.04 0.77 0.77 91 1007.6
20260506000521 50 0.0 2.0 0.00 0.73 0.73 91 1007.6
20260505235521 51 333 0.0 3.0 0.00 0.73 0.73 91 1008.0
20260505234521 51 334 0.0 4.0 0.00 0.73 0.73 90 1008.0
20260505233542 51 334 0.0 5.0 0.00 0.73 0.73 90 1008.0
20260505232517 51 345 0.0 2.0 0.00 0.73 0.73 91 1008.2
20260505231517 51 347 0.0 3.0 0.00 0.73 0.73 91 1007.8
20260505230521 51 137 0.0 3.0 0.00 0.73 0.73 91 1007.9
20260505225521 51 297 0.0 4.0 0.01 0.73 0.73 91 1007.4
20260505224541 51 328 0.0 3.0 0.01 0.73 0.73 92 1007.9